Location: Bogis-Bossey
(46.3500°N, 6.1667°E)
Time: 17:45:10
(UTC+00:00)

USA 305 - Pass Details

Date: 17 August 2022
Orbit: 540 x 550 km, 54.0° (Epoch: 31 August)

Event Time Altitude Azimuth Distance (km) Brightness Sun altitude
Rises 19:32:03 0° 254° (WSW) 2,714 7.1 -8.7°
Reaches altitude 10° 19:34:21 10° 260° (W) 1,821 6.3 -9.1°
Maximum altitude 19:38:21 49° 336° (NNW) 716 3.8 -9.7°
Drops below altitude 10° 19:42:23 10° 52° (NE) 1,820 5.3 -10.3°
Sets 19:44:40 0° 58° (ENE) 2,712 6.1 -10.6°
